Flag for U.S.A. Weather past 2 weeks in Santa Clarita, California, U.S.A.

Now
66 °F

Clear.


Feels Like: 66 °F
Forecast: 58 / 89 °F
Wind: No wind

Location: Van Nuys Airport

Current Time: Oct 1, 2014 at 3:36:47 AM

Latest Report: Oct 1, 2014 at 2:51 AM


Visibility: 10 mi

Pressure: 29.74 "Hg

Humidity: 70%

Dew point: 56 °F

Location of Santa ClaritaLocation

Historic Weather in Santa Clarita — Graph

°F

Santa Clarita temperature yesterday

Maximum temperature yesterday: 89 °F (at 2:51 PM)
Minimum temperature yesterday: 58 °F (at 6:51 AM)
Average temperature yesterday: 74 °F

Past Weeks' High & Low Weather Summary

 TemperatureHumidityPressure
High106 °F (Sep 16, 1:51 PM)85% (Sep 20, 5:51 AM)29.99 "Hg (Sep 20, 5:51 AM)
Low58 °F (Sep 29, 6:51 AM)7% (Sep 24, 2:51 PM)29.64 "Hg (Sep 16, 4:51 PM)
Average75 °F51%29.85 "Hg
* Reported Sep 16 1:51 AM — Oct 1 1:51 AM, Santa Clarita, Weather by CustomWeather, © 2014

Note: Actual official high and low records may vary slightly from our data, if they occured in-between our weather recording intervals... More about our weather records

Advertising

Santa Clarita weather history for previous 24 hours

 ConditionsComfort  
Time TempWeatherWind HumidityBarometerVisibility
1:51 AM
Oct 1
67 °FClear.5 mph68%29.75 "Hg10 mi
12:51 AM68 °FClear.5 mph65%29.74 "Hg10 mi
11:51 PM
Sep 30
69 °FClear.5 mph63%29.75 "Hg10 mi
10:51 PM71 °FClear.5 mph59%29.75 "Hg10 mi
9:51 PM73 °FClear.No wind36%29.75 "Hg10 mi
8:51 PM75 °FClear.No wind33%29.75 "Hg10 mi
7:51 PM78 °FClear.No wind28%29.74 "Hg10 mi
6:51 PM80 °FSunny.7 mph27%29.74 "Hg10 mi
5:51 PM84 °FSunny.7 mph22%29.73 "Hg10 mi
4:51 PM87 °FSunny.8 mph21%29.72 "Hg10 mi
3:51 PM88 °FSunny.10 mph22%29.72 "Hg10 mi
2:51 PM89 °FSunny.10 mph23%29.74 "Hg10 mi
1:51 PM88 °FSunny.5 mph18%29.76 "Hg10 mi
12:51 PM88 °FSunny.3 mph18%29.80 "Hg10 mi
11:51 AM84 °FSunny.No wind22%29.83 "Hg10 mi
10:51 AM80 °FSunny.No wind30%29.85 "Hg10 mi
9:51 AM75 °FSunny.No wind42%29.86 "Hg10 mi
8:51 AM68 °FSunny.No wind55%29.86 "Hg10 mi
7:51 AM62 °FSunny.No wind65%29.85 "Hg10 mi
6:51 AM58 °FClear.3 mph72%29.85 "Hg10 mi
5:51 AM60 °FClear.No wind67%29.84 "Hg10 mi
4:51 AM62 °FClear.No wind65%29.83 "Hg10 mi
3:51 AM62 °FClear.No wind65%29.84 "Hg10 mi
Weather by CustomWeather, © 2014

See weather overviewHow to use our weather pages